Meteo Giornale » Osservazioni meteo Stati Uniti (USA) » Mount Holly South Jersey

ore: 14:54 - Osservazioni Meteo Mount Holly South Jersey
Lat. 39° 56' N Lon. 74° 50' W Alt. 16 metri s.l.m.

sereno

32 °C

Sereno

Temp. 24 Ore

21 °C

32 °C

Ovest/Sud-Ovest

9.3 Km/h

Dew point 22 °C

Umidità 55 %

Visibilità  10 Km

Il sole sorge alle ore 06:27

Il sole tramonta alle ore 19:31

Data e Ora Cielo e Fenomeni T °C DP °C Um. % Pres. hPa Vis. km Vento km/h
Oggi h: 14:54 sereno Sereno 32 22 55 1014 10 O/SO 9.3
Oggi h: 13:54 poco_nuvoloso Poco Nuvoloso 29 23 70 1014 10 N 5.5
Oggi h: 12:54 nuvoloso Nuvoloso 28 23 74 1015 10 N 5.5
Oggi h: 11:54 coperto_pioggia Pioggia 28 23 74 1015 10 N 0
Oggi h: 10:54 poco_nuvoloso Poco Nuvoloso 28 23 74 1016 10 O/SO 11.1
Oggi h: 09:54 sereno Sereno 27 23 78 1015 10 N 9.3
Oggi h: 08:54 sereno Sereno 26 23 83 1015 10 N 7.4
Oggi h: 07:54 molto_nuvoloso Molto Nuvoloso 23 22 94 1016 13 N 0
Oggi h: 06:54 foschia Foschia 22 22 100 1016 8 N 0
Oggi h: 05:54 foschia Foschia 22 21 94 1015 8 N 0
Oggi h: 04:54 coperto Coperto 22 21 94 1016 11 N 0
Oggi h: 03:54 coperto Coperto 22 21 94 1016 11 N 0
Oggi h: 03:32 molto_nuvoloso Molto Nuvoloso 22 21 94 1016 11 N 0
Oggi h: 02:54 molto_nuvoloso Molto Nuvoloso 22 21 94 1016 10 N 0
Oggi h: 01:54 coperto Coperto 22 21 94 1017 10 N 0
Oggi h: 01:35 coperto Coperto 22 21 94 1017 10 N 0
Oggi h: 01:27 molto_nuvoloso Molto Nuvoloso 22 21 94 1017 10 N 0
Oggi h: 01:15 coperto Coperto 21 21 100 1017 10 N 5.5
Oggi h: 00:54 molto_nuvoloso Molto Nuvoloso 21 20 94 1017 10 N 0
Oggi h: 00:09 molto_nuvoloso Molto Nuvoloso 22 20 88 1018 10 N 0
Ieri h: 23:54 coperto Coperto 22 20 88 1018 10 N 0
Ieri h: 23:50 coperto Coperto 22 20 88 1018 10 N 0
Ieri h: 23:19 coperto Coperto 22 20 88 1018 10 N 0
Ieri h: 22:54 coperto Coperto 21 20 94 1018 10 N 0
Ieri h: 21:54 poco_nuvoloso Poco Nuvoloso 22 20 88 1018 10 N 0
Ieri h: 20:54 poco_nuvoloso Poco Nuvoloso 22 21 94 1018 10 N 5.5
Ieri h: 19:54 coperto Coperto 24 21 83 1017 10 N 5.5
Ieri h: 18:54 coperto Coperto 25 21 78 1018 10 N 0
Ieri h: 17:54 molto_nuvoloso Molto Nuvoloso 26 21 73 1018 10 N 0
Ieri h: 16:54 coperto Coperto 26 21 73 1018 10 N 5.5
Ieri h: 15:54 coperto Coperto 26 21 73 1018 10 N 0